Temp_Advection
nan nan nan nan nan nan nan nan nan nan nan nan nan nan nan nan nan nan nan nan nan nan nan nan nan nan nan nan nan nan nan nan
nan 0 1 1 1 1 2 2 1 0 1 1 1 1 1 1 0 1 0 0 0 0 0 0 0 0 0 0 0 0 0 nan
nan -0 0 1 1 1 2 1 1 0 1 1 1 1 1 1 1 0 0 0 0 0 0 0 0 0 0 0 0 0 0 nan
nan -1 -0 1 1 2 2 1 -0 1 1 2 1 1 1 1 0 0 0 0 1 1 0 0 0 0 0 0 0 0 0 nan
nan -2 -2 -1 0 1 1 -0 0 1 3 2 1 2 2 1 1 1 1 1 1 0 0 1 0 0 0 0 0 0 0 nan
nan -1 -1 -1 -0 0 0 0 1 2 3 2 2 2 2 1 1 1 0 0 0 0 0 0 0 0 0 0 0 0 0 nan
nan -0 -0 -0 -0 0 0 1 1 1 1 -0 0 0 0 0 0 -0 -0 -0 -0 0 0 0 -0 0 0 0 0 -0 0 nan
nan -0 -0 -0 0 0 0 0 -0 -0 -0 -0 -0 -0 0 -0 0 0 -0 -0 -0 0 0 0 -0 0 0 0 0 0 0 nan
nan 0 0 0 0 0 -0 -0 -0 0 0 0 -0 0 0 0 -0 -0 -0 -0 0 0 0 0 0 0 0 0 0 0 1 nan
nan 0 1 1 1 -0 -1 -0 0 0 0 1 1 1 0 -0 -0 -0 0 0 -0 0 0 0 0 -0 0 0 0 1 0 nan
nan 0 1 1 0 1 0 -0 -0 0 0 0 0 0 -0 0 0 0 0 0 0 0 0 -0 -0 0 0 1 1 0 0 nan
nan -1 0 1 1 0 -0 0 1 0 0 1 -0 -1 -0 1 0 1 1 0 0 0 0 0 0 1 1 1 0 0 0 nan
nan -1 -0 1 1 1 0 -1 -1 0 0 0 -0 -0 1 0 1 1 1 0 0 0 1 0 0 1 1 1 1 0 1 nan
nan -0 1 0 0 0 0 -0 -1 -1 1 1 -0 -0 0 1 1 1 0 0 1 1 1 0 0 1 1 1 0 0 0 nan
nan -0 0 0 0 0 -0 -0 -0 -0 -0 -1 -0 1 1 2 2 0 0 1 1 1 1 0 1 1 1 0 0 0 1 nan
nan -0 -0 -0 0 0 0 -0 -0 0 0 0 1 1 2 2 0 1 1 1 1 2 0 0 1 0 1 0 1 1 1 nan
nan -0 -0 -0 -0 -0 -0 -0 -0 -0 -0 0 1 1 1 0 0 0 1 2 2 1 -0 0 0 1 0 0 0 1 0 nan
nan 0 -0 -0 -0 0 0 0 0 0 0 0 1 1 0 0 0 1 1 1 1 0 0 0 1 0 0 1 1 0 0 nan
nan nan nan nan nan nan nan nan nan nan nan nan nan nan nan nan nan nan nan nan nan nan nan nan nan nan nan nan nan nan nan nan
Wind_Speed
15 19 24 30 33 35 28 32 34 34 33 31 29 27 25 23 22 20 19 18 18 17 16 15 15 15 15 15 16 17 18 20
14 14 17 25 33 36 36 33 37 38 38 35 33 32 30 28 26 22 20 18 18 17 16 16 15 15 15 16 18 18 22 22
13 12 14 19 25 32 35 36 37 40 40 39 38 33 31 28 25 22 19 17 17 18 16 15 16 17 17 17 18 22 23 27
17 13 9 11 17 24 30 34 37 40 42 42 37 32 29 28 26 23 21 19 19 19 18 18 17 16 16 18 19 20 24 29
14 14 13 10 13 18 21 26 32 38 41 41 38 35 32 29 26 23 21 20 18 18 17 16 17 17 17 18 18 19 19 25
18 15 12 9 9 14 15 17 25 33 34 32 32 31 27 17 14 16 17 16 16 16 16 16 16 17 16 17 18 18 20 21
18 17 14 8 3 5 10 17 22 25 24 16 11 7 12 13 13 14 16 14 13 14 16 15 15 14 16 16 17 18 19 22
13 12 11 8 2 3 7 2 5 4 6 9 10 8 22 13 16 21 18 12 11 16 16 14 16 14 15 15 14 15 17 18
14 11 9 8 5 3 9 13 7 4 5 4 12 11 16 15 16 16 15 12 14 15 15 17 15 14 14 13 13 14 15 17
16 15 14 12 11 11 16 13 9 5 7 12 17 20 23 22 19 20 16 14 17 15 16 16 15 14 14 13 13 13 12 12
22 21 24 22 19 17 23 22 16 12 12 16 22 23 18 18 18 19 19 16 19 17 17 16 14 14 13 13 14 14 12 10
28 30 28 27 24 25 29 30 26 22 21 25 23 23 23 22 20 24 23 22 22 20 17 17 14 14 15 15 15 14 13 12
32 34 30 27 21 25 33 36 29 26 22 20 23 21 21 22 24 25 26 23 23 19 17 16 14 18 17 17 16 14 13 13
38 33 30 24 18 16 15 21 25 27 25 24 24 25 22 24 27 27 29 25 24 23 21 18 15 19 19 17 16 14 13 13
30 25 17 13 15 15 14 14 17 23 27 29 28 31 29 27 30 31 30 29 29 27 23 20 17 18 18 18 17 15 16 18
15 14 14 16 18 19 21 21 20 19 20 26 30 30 32 32 32 35 35 33 31 29 26 23 21 20 20 17 17 18 19 21
10 14 16 18 18 19 20 19 17 17 19 24 25 30 33 31 32 33 32 33 33 31 29 26 25 26 24 19 18 19 19 18
11 14 15 16 19 22 22 21 19 20 18 18 23 25 27 27 29 31 34 35 34 34 28 24 24 22 22 21 20 18 17 15
12 14 17 20 24 25 24 22 20 21 18 16 16 18 19 24 29 31 31 34 35 36 29 22 20 21 23 21 20 19 17 15
Wind_Direction
300 282 272 260 251 254 244 234 225 227 231 225 220 220 219 220 221 220 223 226 226 224 219 213 210 206 203 195 189 178 182 180
322 299 279 267 256 252 251 239 227 225 228 221 218 218 218 219 218 221 223 222 222 219 218 214 207 204 205 197 189 188 179 182
347 335 308 279 271 260 251 246 234 227 229 227 223 218 219 220 222 222 223 218 216 217 212 214 210 203 199 197 198 185 186 180
360 354 327 287 274 265 256 249 242 233 233 229 225 223 222 219 220 223 215 214 213 212 207 201 205 201 201 197 195 200 191 188
20 13 4 332 292 271 263 256 245 234 227 225 225 224 220 222 224 221 213 210 210 210 206 205 198 199 200 201 200 203 207 199
34 30 24 3 315 290 278 252 238 234 226 220 215 214 214 221 216 227 220 203 211 212 210 213 206 197 198 204 202 205 205 216
25 24 23 21 347 258 256 234 227 231 224 221 229 244 250 251 244 224 233 219 209 222 222 219 216 200 201 202 203 209 215 220
16 19 21 20 331 256 231 217 209 182 203 245 228 238 244 222 239 242 238 232 245 240 230 219 218 203 204 203 205 215 220 223
2 2 357 339 316 269 173 142 119 14 303 246 210 213 207 218 208 221 228 235 231 222 224 220 215 209 205 204 207 214 217 221
1 342 334 315 285 250 192 210 266 245 233 197 207 202 218 214 212 219 218 223 219 219 221 221 217 209 205 206 203 204 212 217
313 307 301 286 271 260 228 237 245 257 234 233 233 239 232 233 231 229 230 223 226 223 216 217 217 217 211 207 200 195 193 206
294 295 297 287 269 263 254 251 250 255 257 248 248 239 231 230 229 239 233 227 225 224 215 214 213 221 210 206 199 191 179 189
303 291 291 290 276 275 261 262 259 259 250 259 250 246 239 223 232 234 236 235 230 223 217 221 218 225 212 204 199 189 187 184
303 300 292 297 293 296 285 272 270 269 263 239 255 254 245 235 229 232 231 232 231 228 219 220 218 226 213 202 201 185 193 188
301 298 294 312 324 328 325 315 287 274 267 263 245 239 241 234 233 229 230 230 226 223 212 213 217 216 213 209 200 192 199 198
293 300 310 311 314 319 320 319 306 292 282 269 264 250 244 237 222 227 227 227 224 218 214 211 201 214 211 211 207 200 201 205
307 316 318 318 319 321 322 319 315 307 291 276 265 250 244 237 224 224 223 223 217 215 220 221 216 210 196 204 208 212 207 206
303 315 328 327 321 317 317 310 304 302 290 280 260 250 244 237 223 219 218 216 211 216 222 226 228 227 205 201 203 211 214 210
296 312 316 313 310 305 302 301 299 300 289 283 259 251 242 230 224 218 218 215 214 217 216 222 223 215 198 196 207 207 211 212
Height
1467 1466 1466 1467 1469 1469 1473 1475 1478 1482 1486 1487 1489 1491 1494 1497 1500 1500 1503 1505 1507 1510 1511 1513 1514 1515 1517 1518 1518 1519 1522 1525
1462 1461 1462 1462 1462 1464 1467 1470 1473 1476 1478 1481 1483 1485 1488 1489 1491 1495 1497 1499 1502 1505 1508 1509 1510 1512 1515 1516 1517 1517 1519 1523
1459 1457 1455 1456 1459 1461 1463 1466 1469 1472 1474 1476 1478 1482 1483 1485 1488 1492 1495 1495 1496 1500 1502 1506 1508 1508 1510 1513 1515 1516 1518 1520
1457 1454 1453 1452 1453 1455 1457 1460 1464 1468 1470 1471 1475 1478 1482 1483 1485 1487 1486 1490 1494 1496 1497 1498 1503 1506 1507 1509 1511 1515 1515 1518
1458 1455 1453 1452 1453 1453 1454 1457 1461 1463 1464 1465 1468 1473 1477 1481 1485 1485 1484 1485 1489 1492 1494 1498 1497 1501 1505 1507 1508 1511 1513 1515
1456 1456 1455 1455 1454 1454 1454 1456 1457 1458 1459 1462 1464 1466 1472 1475 1479 1487 1486 1481 1484 1489 1491 1497 1497 1496 1500 1505 1505 1508 1509 1513
1457 1455 1454 1454 1454 1454 1454 1453 1454 1456 1459 1462 1466 1469 1476 1474 1477 1480 1482 1483 1481 1486 1490 1492 1498 1495 1498 1500 1502 1505 1506 1509
1459 1458 1455 1454 1454 1452 1452 1454 1455 1458 1461 1463 1464 1463 1470 1463 1476 1481 1479 1477 1479 1486 1490 1490 1496 1493 1497 1498 1499 1502 1504 1504
1462 1461 1458 1457 1455 1454 1454 1454 1455 1456 1457 1455 1454 1451 1461 1460 1462 1475 1471 1474 1478 1482 1486 1489 1492 1492 1493 1494 1496 1500 1500 1503
1461 1461 1459 1458 1458 1455 1452 1450 1449 1450 1451 1448 1453 1451 1453 1455 1459 1465 1465 1470 1475 1477 1482 1487 1490 1490 1490 1491 1491 1496 1500 1501
1456 1455 1455 1452 1449 1450 1451 1450 1450 1449 1448 1450 1448 1451 1448 1452 1457 1460 1465 1466 1473 1474 1477 1480 1484 1486 1487 1489 1491 1491 1492 1498
1447 1446 1445 1444 1444 1444 1444 1443 1445 1445 1445 1446 1446 1447 1448 1449 1451 1459 1462 1465 1469 1474 1474 1475 1476 1482 1485 1488 1488 1488 1487 1494
1440 1438 1438 1438 1439 1439 1439 1439 1439 1441 1441 1444 1442 1444 1445 1445 1448 1454 1459 1460 1466 1468 1470 1473 1473 1480 1483 1484 1485 1484 1488 1489
1433 1432 1431 1432 1433 1432 1433 1433 1432 1432 1433 1436 1440 1438 1439 1443 1446 1449 1455 1458 1461 1464 1466 1468 1470 1477 1481 1481 1484 1478 1487 1489
1429 1427 1427 1427 1428 1427 1426 1425 1425 1424 1425 1426 1429 1431 1433 1438 1442 1446 1449 1453 1457 1459 1461 1465 1468 1472 1477 1479 1476 1476 1485 1491
1428 1426 1424 1423 1422 1421 1421 1420 1419 1419 1418 1418 1420 1422 1425 1430 1436 1440 1445 1447 1452 1456 1457 1455 1461 1470 1472 1472 1475 1477 1484 1491
1428 1426 1423 1420 1420 1419 1417 1417 1415 1413 1412 1411 1412 1414 1418 1422 1427 1433 1436 1440 1444 1448 1451 1453 1457 1459 1461 1469 1473 1479 1481 1484
1424 1423 1421 1418 1417 1415 1413 1412 1410 1408 1406 1405 1405 1407 1410 1414 1419 1423 1429 1432 1438 1443 1446 1449 1454 1456 1461 1466 1468 1473 1477 1478
1421 1420 1418 1417 1415 1412 1409 1407 1405 1403 1401 1399 1398 1401 1404 1408 1412 1417 1422 1427 1432 1435 1441 1445 1449 1453 1456 1460 1465 1468 1472 1474